Location: Wangen+im+Allg�u
(47.7098°N, 9.8383°E)
Time: 03:15:21
(UTC+01:00)

ISS - Pass Details

Date: 04 January 2018
Orbit: 402 x 407 km, 51.6° (Epoch: 22 January)

Event Time Altitude Azimuth Distance (km) Brightness Sun altitude
Exits shadow 06:53:23 21° 298° (WNW) 979 -2.5 -12.1°
Maximum altitude 06:55:10 40° 357° (N) 619 -3.1 -11.9°
Drops below altitude 10° 06:58:19 10° 69° (ENE) 1,472 -0.3 -11.4°
Sets 07:00:29 0° 77° (ENE) 2,334 1.0 -11.0°
